Location: Gouy
(50.0008°N, 3.2556°E)
Time: 14:36:47
(UTC+00:00)

Cosmos 1300 Rocket - Pass Details

Date: 23 May 2024
Orbit: 597 x 624 km, 82.5° (Epoch: 16 June)

Event Time Altitude Azimuth Distance (km) Brightness Sun altitude
Rises 01:10:10 0° 354° (N) 2,878 8.1 -16.8°
Reaches altitude 10° 01:12:30 10° 1° (N) 1,965 7.2 -16.7°
Maximum altitude 01:16:39 44° 74° (ENE) 838 4.5 -16.4°
Enters shadow 01:20:28 12° 146° (SE) 1,826 5.7 -16.2°
